Wind_Speed
75 76 76 77 77 78 78 78 78 79 80 82 82 83 84 85 85 86 87 89 90 91 92 92 93 94 95 96 97 98 99 100 101 102 103 103 104 104 105 105 105 106
77 77 77 78 78 78 78 78 78 79 81 82 82 83 83 84 85 86 87 89 90 90 91 92 93 94 95 96 96 97 98 99 100 101 101 101 102 102 103 103 104 104
78 78 78 78 79 79 79 78 79 80 81 81 82 83 83 84 85 86 88 89 89 90 91 92 93 94 94 95 95 96 97 98 98 99 99 99 100 100 101 102 103 103
79 80 80 79 79 79 79 79 79 80 81 81 82 82 82 84 85 86 88 88 89 90 91 92 93 94 94 94 94 95 95 96 97 97 97 97 98 99 99 101 101 102
81 81 81 81 80 80 79 79 80 81 81 81 81 82 82 84 85 86 87 88 89 90 91 92 93 93 94 94 94 94 95 95 95 95 95 95 96 97 98 99 100 100
82 82 82 82 81 80 80 80 81 81 81 81 81 82 83 84 85 86 86 88 89 90 91 92 93 93 93 93 93 93 94 94 93 93 93 94 94 95 96 98 98 99
83 83 83 83 82 81 81 81 82 81 81 81 81 83 84 85 85 86 86 88 89 90 91 92 92 93 93 92 92 92 92 92 91 92 92 93 93 94 95 96 97 97
84 83 83 83 82 82 82 82 82 82 81 81 82 84 85 85 85 86 87 88 89 91 92 92 92 92 92 91 91 91 90 90 90 90 91 91 92 93 94 95 96 96
84 83 83 82 82 82 82 82 82 82 82 82 83 84 85 85 85 86 87 89 90 91 92 92 91 91 91 90 90 89 89 89 89 89 90 90 91 92 93 94 94 95
84 83 82 82 82 82 82 82 82 82 82 83 84 84 85 85 86 87 88 89 90 91 91 91 91 90 90 89 89 88 88 88 88 88 88 89 90 91 92 93 94 94
84 83 82 82 83 82 82 82 82 82 83 84 84 84 84 85 86 87 89 90 91 91 91 91 90 90 89 89 88 88 88 88 87 87 87 88 89 90 91 92 93 92
84 83 83 83 83 83 83 83 83 84 84 84 85 85 85 86 87 88 89 90 91 91 91 90 90 90 89 89 89 88 88 87 86 86 86 87 88 90 91 91 91 90
84 84 83 83 83 83 83 84 84 84 85 85 85 85 85 86 87 88 89 90 91 91 91 90 90 90 90 89 89 88 87 86 85 85 85 86 87 89 90 90 90 89
85 84 83 83 83 84 84 85 85 85 85 85 85 85 86 87 88 89 90 91 91 91 91 90 90 90 90 90 89 88 87 85 84 84 85 86 87 88 89 89 88 86
85 84 83 83 83 84 85 85 86 86 86 85 85 86 86 87 88 89 90 91 91 91 90 90 90 90 90 89 88 87 86 84 83 84 84 85 86 86 87 87 86 84
85 84 83 83 84 85 86 87 87 86 86 86 86 86 86 87 88 90 91 91 91 90 90 89 89 90 90 89 88 86 85 83 82 83 84 85 85 85 85 85 84 81
85 84 84 84 85 86 87 87 87 87 87 86 86 86 87 88 89 90 91 91 90 89 89 89 89 90 89 88 87 86 84 82 80 81 83 84 84 84 84 83 82 80
86 85 85 85 86 88 88 88 88 88 87 87 87 87 88 89 90 90 91 90 89 88 88 88 89 90 88 87 86 86 84 82 79 79 80 81 82 82 81 81 81 79
87 86 86 87 88 89 89 89 89 89 88 88 87 87 88 89 90 90 90 89 88 87 87 88 89 89 87 86 85 85 84 82 79 78 78 78 79 79 78 78 79 78
88 87 87 88 89 89 89 90 90 89 88 88 87 88 88 89 90 90 89 88 87 87 87 87 88 88 86 85 84 84 83 80 78 77 77 77 77 76 75 76 76 76
89 88 88 89 89 89 90 90 90 89 88 87 87 87 88 89 89 89 87 86 86 86 85 85 86 86 85 84 83 83 81 79 77 77 76 76 75 74 74 74 74 73
89 89 89 89 89 89 89 90 90 89 88 87 87 87 88 88 88 87 86 85 85 85 84 84 85 85 84 83 82 81 79 76 75 76 76 75 74 73 73 73 71 69
90 89 89 89 89 89 89 89 89 88 87 87 86 87 88 88 87 85 84 85 85 84 83 83 83 84 83 82 81 79 76 74 74 74 75 74 73 72 71 70 68 66
90 90 89 89 89 89 89 89 89 87 87 86 86 87 87 86 85 84 83 84 84 83 83 82 82 83 82 80 79 77 75 72 72 73 73 72 71 70 69 67 65 62
91 90 89 89 89 89 89 89 88 87 86 86 86 86 86 85 83 82 83 84 83 83 82 82 81 82 81 79 77 75 73 71 71 71 71 70 70 68 66 64 61 59
91 90 90 89 89 89 89 88 87 86 85 86 86 85 85 83 82 82 82 83 83 82 82 82 81 80 79 77 74 73 72 70 69 69 69 68 67 66 64 61 59 56
Wind_Direction
303 303 302 301 300 300 299 298 297 296 294 293 293 292 292 292 292 292 291 291 291 291 291 290 290 288 287 286 284 283 282 281 280 280 279 279 279 278 278 278 277 276
305 304 303 303 302 301 300 299 298 297 296 295 294 294 294 294 294 293 293 293 293 293 293 292 291 290 288 287 285 284 283 282 282 281 281 280 280 280 279 279 278 277
306 305 304 304 303 302 301 300 299 297 297 296 296 295 295 295 295 294 294 294 295 295 294 293 292 290 289 288 287 285 284 284 283 283 282 282 282 281 281 280 279 278
306 306 305 304 304 303 302 301 299 298 297 297 297 297 296 296 295 295 295 296 296 295 294 293 293 291 290 289 288 287 286 285 284 284 284 283 283 282 281 280 279 279
307 306 305 305 304 304 303 302 300 299 298 298 298 297 297 296 295 295 296 297 296 296 295 294 294 293 292 291 290 289 287 286 286 285 285 284 283 283 282 281 280 280
308 307 306 305 305 304 303 302 301 300 299 299 299 298 297 296 296 297 297 297 297 296 296 295 295 294 293 292 291 290 288 288 287 286 286 285 284 283 283 282 281 281
308 308 307 306 306 305 304 303 302 301 301 301 300 298 297 297 298 298 298 298 298 298 297 296 296 295 294 293 291 290 289 289 288 287 287 286 285 285 284 283 282 281
309 309 308 307 307 306 304 304 303 303 302 301 300 299 298 299 299 299 299 299 299 299 298 298 297 296 294 293 292 291 290 290 289 288 288 287 287 286 285 284 283 282
310 309 309 309 307 306 305 305 304 304 303 301 300 300 300 300 300 300 300 300 300 300 299 298 297 296 295 293 292 292 291 291 290 290 289 289 288 287 286 284 283 283
311 311 310 310 309 308 307 306 305 304 303 302 301 301 301 301 301 301 301 301 301 300 300 299 298 296 295 294 293 293 293 292 291 291 291 290 289 288 286 285 284 284
312 311 311 310 310 309 309 308 306 304 303 303 302 302 303 303 303 302 302 302 302 301 300 300 298 297 296 295 295 294 294 293 293 293 292 291 290 288 287 286 286 285
312 312 311 311 311 311 310 308 307 305 304 304 304 304 304 304 303 303 303 303 303 302 301 300 299 298 298 297 296 296 295 295 294 294 293 292 290 289 289 288 287 286
313 312 311 312 312 312 310 309 307 306 306 305 305 305 305 304 304 304 304 304 304 303 302 301 300 299 299 298 297 297 296 296 296 295 294 292 292 291 290 289 288 287
312 311 311 312 312 311 310 309 308 307 307 307 306 306 305 305 305 305 305 305 305 304 303 302 301 300 299 299 298 298 298 297 297 296 295 294 293 292 291 290 288 288
312 311 311 312 312 311 310 310 309 308 308 308 307 307 307 307 307 307 306 306 305 304 303 302 302 301 300 299 299 299 298 298 298 297 296 295 294 293 292 290 289 288
312 312 312 312 311 311 311 310 309 309 309 308 308 308 308 308 307 307 307 306 305 304 303 303 302 301 300 300 300 299 299 299 299 299 298 297 295 294 292 290 289 289
312 312 312 312 311 311 311 310 310 310 310 309 309 309 309 308 308 308 307 306 305 304 304 303 302 301 301 301 301 300 300 300 300 300 299 298 296 294 293 291 290 289
313 313 312 312 311 311 311 311 311 311 311 310 310 310 309 309 308 308 307 306 305 305 305 304 303 302 302 302 301 301 301 301 301 301 299 298 296 294 293 293 292 291
314 313 312 311 311 310 311 312 312 312 311 311 310 310 310 309 308 308 307 306 306 306 305 304 303 303 303 303 303 303 303 303 303 302 299 297 295 294 293 293 292 292
315 314 313 311 311 311 311 312 312 312 311 311 311 310 310 309 308 308 307 307 306 306 305 305 304 303 303 304 304 304 304 305 304 302 300 297 296 295 294 293 292 292
315 314 313 311 311 311 311 312 312 312 311 311 311 310 309 309 309 308 308 307 307 306 306 305 304 304 304 305 305 305 306 306 305 302 300 298 297 296 295 294 293 293
315 314 313 312 311 311 311 312 312 312 311 311 311 310 309 309 309 308 308 307 307 306 306 306 305 305 305 306 306 306 307 307 305 302 300 298 298 297 296 295 294 295
315 314 313 312 312 311 311 311 311 312 311 311 311 310 310 309 309 308 308 308 307 307 307 307 306 306 306 307 307 307 307 306 304 302 300 299 298 297 296 296 297 297
315 314 313 312 312 312 311 312 312 312 312 311 311 310 310 309 309 309 309 308 308 308 308 307 307 307 307 308 308 308 307 306 304 301 300 300 299 298 298 298 298 298
314 314 313 312 312 312 312 312 312 312 312 311 311 310 310 310 310 310 310 309 309 309 308 308 308 307 308 308 309 308 306 305 303 302 301 301 300 300 299 299 299 298
314 314 313 313 312 312 312 312 312 312 312 311 311 311 310 311 311 311 310 310 310 309 309 308 308 308 308 309 309 308 306 305 303 302 302 302 301 300 300 299 299 299
Height
10223 10217 10211 10205 10199 10193 10187 10182 10177 10171 10164 10157 10153 10147 10142 10137 10131 10126 10121 10115 10109 10104 10100 10096 10091 10086 10081 10076 10072 10068 10064 10060 10056 10052 10049 10046 10042 10039 10035 10031 10028 10024
10211 10205 10199 10193 10187 10181 10175 10170 10164 10157 10151 10145 10140 10134 10129 10123 10117 10112 10106 10100 10095 10090 10085 10080 10075 10070 10065 10060 10056 10052 10048 10043 10039 10035 10033 10029 10025 10021 10017 10013 10009 10005
10200 10194 10188 10182 10176 10170 10164 10158 10152 10145 10139 10133 10127 10121 10116 10110 10104 10098 10092 10087 10082 10077 10071 10066 10060 10055 10050 10045 10040 10037 10031 10027 10023 10019 10016 10012 10007 10004 10000 9995 9991 9987
10189 10182 10177 10171 10165 10159 10153 10147 10140 10133 10127 10121 10115 10110 10104 10097 10092 10086 10080 10074 10069 10063 10057 10051 10046 10040 10035 10030 10025 10021 10016 10011 10007 10004 10001 9996 9991 9987 9982 9977 9973 9969
10177 10171 10165 10159 10154 10148 10142 10135 10128 10121 10115 10109 10104 10098 10091 10085 10079 10073 10067 10062 10056 10050 10044 10037 10031 10025 10019 10015 10010 10005 10000 9996 9992 9988 9985 9980 9975 9970 9965 9960 9956 9952
10166 10160 10153 10148 10142 10136 10129 10122 10115 10109 10103 10097 10091 10084 10078 10072 10066 10060 10055 10049 10043 10036 10030 10023 10017 10010 10004 10000 9995 9990 9984 9980 9976 9972 9969 9964 9959 9954 9948 9943 9939 9934
10155 10148 10141 10136 10130 10123 10117 10110 10103 10097 10090 10085 10078 10071 10065 10059 10053 10048 10041 10035 10029 10022 10015 10009 10002 9996 9990 9985 9980 9975 9970 9966 9961 9957 9952 9947 9942 9938 9931 9926 9921 9916
10144 10137 10130 10124 10118 10111 10104 10097 10090 10084 10078 10071 10065 10058 10052 10046 10040 10034 10028 10021 10015 10008 10000 9994 9988 9982 9976 9971 9965 9960 9956 9951 9947 9942 9937 9932 9927 9921 9914 9908 9904 9899
10133 10126 10120 10113 10106 10099 10092 10085 10078 10072 10065 10059 10052 10045 10039 10033 10027 10020 10014 10007 10000 9993 9986 9980 9974 9968 9962 9956 9950 9946 9942 9937 9932 9926 9922 9916 9910 9904 9897 9891 9887 9882
10121 10115 10108 10101 10094 10087 10080 10073 10067 10060 10053 10046 10039 10033 10027 10020 10014 10007 10000 9994 9986 9979 9973 9966 9960 9953 9947 9941 9936 9932 9927 9922 9917 9912 9907 9901 9894 9887 9880 9874 9870 9866
10109 10103 10096 10089 10082 10075 10068 10061 10054 10047 10040 10033 10027 10020 10014 10007 10000 9993 9986 9979 9972 9965 9958 9952 9945 9938 9932 9926 9921 9917 9912 9907 9903 9898 9892 9885 9878 9871 9864 9858 9854 9850
10098 10091 10084 10077 10070 10063 10056 10048 10041 10034 10027 10020 10014 10007 10001 9994 9987 9980 9972 9965 9958 9951 9944 9937 9930 9923 9916 9910 9906 9901 9897 9893 9888 9883 9877 9869 9862 9854 9847 9841 9837 9834
10087 10079 10072 10066 10059 10051 10044 10036 10028 10021 10014 10007 10001 9995 9988 9981 9974 9966 9958 9951 9944 9936 9929 9922 9915 9908 9901 9896 9891 9886 9882 9878 9873 9868 9861 9854 9846 9838 9831 9825 9820 9817
10076 10069 10062 10055 10048 10040 10032 10024 10016 10009 10002 9995 9989 9982 9975 9967 9960 9952 9944 9936 9929 9922 9915 9908 9901 9894 9887 9881 9877 9872 9868 9864 9859 9853 9846 9838 9831 9823 9815 9809 9804 9801
10065 10058 10052 10044 10037 10028 10020 10012 10004 9997 9990 9983 9976 9969 9962 9954 9946 9938 9930 9923 9915 9908 9901 9894 9887 9880 9873 9867 9863 9858 9854 9850 9845 9838 9831 9823 9816 9808 9800 9793 9789 9787
10054 10048 10041 10033 10024 10016 10008 10000 9992 9985 9978 9971 9964 9956 9949 9941 9933 9925 9917 9910 9903 9895 9888 9881 9873 9866 9859 9854 9849 9844 9840 9837 9832 9823 9815 9807 9799 9793 9786 9778 9775 9773
10043 10036 10028 10020 10012 10004 9995 9987 9980 9972 9965 9958 9951 9943 9935 9927 9919 9912 9905 9897 9890 9883 9875 9868 9859 9851 9845 9840 9834 9829 9825 9824 9820 9812 9801 9792 9784 9776 9770 9764 9760 9759
10031 10023 10015 10007 9999 9991 9983 9975 9967 9959 9952 9945 9938 9930 9922 9914 9906 9899 9892 9884 9877 9870 9863 9854 9845 9837 9832 9827 9821 9814 9809 9807 9806 9800 9789 9780 9771 9763 9757 9750 9746 9743
10018 10011 10003 9994 9986 9977 9969 9961 9954 9946 9939 9932 9925 9917 9909 9901 9894 9886 9879 9871 9864 9858 9850 9841 9831 9823 9818 9814 9807 9801 9795 9792 9790 9784 9775 9766 9758 9751 9746 9740 9734 9730
10006 9998 9990 9981 9973 9965 9957 9949 9941 9934 9926 9919 9913 9905 9897 9889 9881 9874 9866 9859 9851 9845 9838 9829 9818 9810 9806 9801 9794 9788 9783 9779 9774 9767 9759 9751 9744 9739 9735 9729 9723 9719
9994 9986 9977 9969 9960 9953 9945 9937 9929 9922 9915 9908 9901 9893 9885 9877 9869 9861 9854 9847 9839 9832 9826 9818 9807 9798 9794 9789 9782 9776 9771 9766 9760 9752 9744 9737 9731 9726 9722 9717 9712 9709
9982 9974 9965 9956 9948 9941 9933 9925 9918 9910 9903 9896 9889 9880 9872 9864 9857 9849 9842 9835 9827 9820 9813 9806 9795 9786 9781 9777 9770 9764 9760 9755 9747 9738 9730 9725 9720 9715 9710 9705 9702 9700
9970 9961 9953 9945 9937 9929 9921 9913 9906 9898 9891 9884 9876 9868 9860 9852 9845 9838 9830 9822 9814 9807 9800 9794 9784 9774 9769 9765 9759 9753 9749 9744 9735 9726 9718 9713 9708 9703 9699 9695 9692 9690
9957 9949 9941 9933 9925 9917 9909 9901 9893 9886 9879 9871 9864 9856 9847 9840 9833 9826 9818 9809 9801 9794 9786 9781 9773 9764 9758 9754 9748 9741 9737 9732 9724 9715 9708 9702 9697 9692 9688 9686 9683 9680
9944 9936 9928 9920 9912 9904 9896 9889 9881 9874 9867 9859 9851 9843 9835 9828 9821 9814 9806 9796 9787 9781 9773 9767 9762 9754 9747 9743 9738 9730 9725 9720 9713 9705 9698 9692 9686 9682 9678 9675 9673 9670
9931 9923 9915 9907 9900 9892 9884 9876 9868 9862 9855 9847 9839 9831 9823 9816 9808 9802 9794 9784 9775 9768 9760 9754 9750 9744 9737 9732 9727 9720 9713 9709 9703 9695 9689 9683 9676 9672 9669 9666 9664 9661